TimeCDT,TemperatureF,Dew PointF,Humidity,Sea Level PressureIn,VisibilityMPH,Wind Direction,Wind SpeedMPH,Gust SpeedMPH,PrecipitationIn,Events,Conditions,WindDirDegrees,DateUTC
12:53 AM,71.1,69.1,93,29.70,10.0,WSW,6.9,-,N/A,,Clear,250,2013-07-19 05:53:00
1:53 AM,69.1,68.0,96,29.70,10.0,WSW,5.8,-,N/A,,Clear,240,2013-07-19 06:53:00
2:53 AM,72.0,66.0,81,29.70,10.0,West,11.5,-,N/A,,Clear,270,2013-07-19 07:53:00
3:53 AM,70.0,63.0,78,29.71,10.0,West,12.7,-,N/A,,Clear,280,2013-07-19 08:53:00
4:53 AM,66.9,61.0,81,29.73,10.0,NW,17.3,25.3,N/A,,Clear,310,2013-07-19 09:53:00
5:53 AM,64.9,59.0,81,29.77,10.0,NW,11.5,20.7,N/A,,Mostly Cloudy,320,2013-07-19 10:53:00
6:53 AM,64.0,59.0,84,29.80,10.0,NW,15.0,21.9,N/A,,Overcast,320,2013-07-19 11:53:00
7:29 AM,64.4,57.2,77,29.83,10.0,NW,10.4,-,N/A,,Scattered Clouds,320,2013-07-19 12:29:00
7:53 AM,66.0,57.9,75,29.82,10.0,NW,11.5,-,N/A,,Partly Cloudy,320,2013-07-19 12:53:00
8:53 AM,68.0,57.9,70,29.85,10.0,NNW,11.5,-,N/A,,Clear,330,2013-07-19 13:53:00
9:53 AM,70.0,59.0,68,29.87,10.0,NNW,9.2,-,N/A,,Partly Cloudy,340,2013-07-19 14:53:00
10:53 AM,71.1,59.0,66,29.87,10.0,NW,13.8,-,N/A,,Mostly Cloudy,310,2013-07-19 15:53:00
11:53 AM,73.9,57.9,57,29.87,10.0,WNW,11.5,-,N/A,,Scattered Clouds,290,2013-07-19 16:53:00
12:53 PM,75.9,57.9,54,29.88,10.0,WNW,18.4,21.9,N/A,,Scattered Clouds,290,2013-07-19 17:53:00
1:53 PM,77.0,57.0,50,29.88,10.0,West,16.1,21.9,N/A,,Scattered Clouds,280,2013-07-19 18:53:00
2:53 PM,77.0,57.0,50,29.87,10.0,WNW,10.4,20.7,N/A,,Partly Cloudy,290,2013-07-19 19:53:00
3:53 PM,80.1,55.0,42,29.86,10.0,WNW,15.0,25.3,N/A,,Partly Cloudy,300,2013-07-19 20:53:00
4:53 PM,75.9,57.0,52,29.85,10.0,WNW,10.4,-,N/A,,Mostly Cloudy,300,2013-07-19 21:53:00
5:53 PM,78.1,59.0,52,29.84,10.0,WNW,9.2,-,0.00,,Mostly Cloudy,300,2013-07-19 22:53:00
6:53 PM,75.0,59.0,57,29.83,10.0,WNW,8.1,-,N/A,,Mostly Cloudy,300,2013-07-19 23:53:00
7:53 PM,72.0,63.0,73,29.85,10.0,West,6.9,-,0.00,,Clear,270,2013-07-20 00:53:00
8:53 PM,68.0,64.0,87,29.86,10.0,West,6.9,-,N/A,,Clear,270,2013-07-20 01:53:00
9:53 PM,64.0,59.0,84,29.87,10.0,West,6.9,-,N/A,,Clear,280,2013-07-20 02:53:00
10:53 PM,62.1,57.9,86,29.89,10.0,NW,6.9,-,N/A,,Clear,320,2013-07-20 03:53:00
11:53 PM,60.1,57.0,90,29.89,10.0,NNW,5.8,-,N/A,,Clear,330,2013-07-20 04:53:00